GW5363 Weather Reports


Display with metric or nautical units.
time (UTC)temp
F
wind
direction
speed
MPH
gust
MPH
rain 1hr
in
rain 24hr
in
rain mn
in
humidity
%
barometer
mb
20260509234227 58 272 5.0 7.0 0.00 0.00 0.00 63 1010.2
20260509233725 58 312 4.0 6.0 0.00 0.00 0.00 63 1010.5
20260509233222 58 316 2.0 3.0 0.00 0.00 0.00 62 1010.3
20260509232718 59 296 5.0 7.0 0.00 0.00 0.00 61 1010.3
20260509232215 60 296 2.0 3.0 0.00 0.00 0.00 60 1010.2
20260509231711 60 282 2.0 3.0 0.00 0.00 0.00 60 1010.3
20260509231209 59 240 3.0 4.0 0.00 0.00 0.00 60 1010.5
20260509230706 59 275 5.0 7.0 0.00 0.00 0.00 60 1010.5
20260509230203 59 206 5.0 7.0 0.00 0.00 0.00 60 1010.2
20260509225658 59 270 4.0 8.0 0.00 0.00 0.00 60 1010.5
20260509225154 60 263 9.0 10.0 0.00 0.00 0.00 59 1010.3
20260509224650 59 213 11.0 13.0 0.00 0.00 0.00 60 1010.6
20260509224147 60 249 6.0 8.0 0.00 0.00 0.00 60 1010.6
20260509223644 61 311 9.0 11.0 0.00 0.00 0.00 58 1010.6
20260509223141 62 308 4.0 6.0 0.00 0.00 0.00 56 1010.6
20260509222638 62 238 4.0 6.0 0.00 0.00 0.00 56 1010.5
20260509222133 61 272 5.0 7.0 0.00 0.00 0.00 57 1010.6
20260509221630 60 259 2.0 2.0 0.00 0.00 0.00 58 1010.7
20260509221126 60 238 3.0 4.0 0.00 0.00 0.00 59 1010.5
20260509220622 60 246 6.0 9.0 0.00 0.00 0.00 57 1010.9
20260509220118 61 249 6.0 7.0 0.00 0.00 0.00 55 1010.8
20260509215614 62 277 5.0 6.0 0.00 0.00 0.00 55 1010.6
20260509215111 61 247 4.0 4.0 0.00 0.00 0.00 55 1010.5
20260509214608 61 200 6.0 7.0 0.00 0.00 0.00 56 1010.6
20260509214105 61 293 6.0 8.0 0.00 0.00 0.00 56 1010.7
20260509213601 61 276 6.0 10.0 0.00 0.00 0.00 57 1010.5
20260509213057 62 293 5.0 6.0 0.00 0.00 0.00 54 1010.5
20260509212555 61 300 3.0 3.0 0.00 0.00 0.00 56 1010.1
20260509212052 62 252 7.0 9.0 0.00 0.00 0.00 55 1010.2
20260509211547 62 324 2.0 2.0 0.00 0.00 0.00 55 1010.3
20260509211044 60 329 3.0 4.0 0.00 0.00 0.00 58 1010.3
20260509210541 61 298 4.0 4.0 0.00 0.00 0.00 57 1010.2
20260509210037 60 228 4.0 6.0 0.00 0.00 0.00 59 1010.3
20260509205531 60 291 5.0 7.0 0.00 0.00 0.00 59 1010.3
20260509205027 60 19 3.0 4.0 0.00 0.00 0.00 59 1010.1
20260509204524 60 274 3.0 3.0 0.00 0.00 0.00 60 1010.3
20260509204020 60 310 2.0 3.0 0.00 0.00 0.00 59 1010.3
20260509203516 60 249 4.0 4.0 0.00 0.00 0.00 59 1010.3
20260509203015 60 307 4.0 6.0 0.00 0.00 0.00 60 1010.3
20260509202514 60 284 4.0 6.0 0.00 0.00 0.00 61 1010.2
20260509202010 60 310 3.0 3.0 0.00 0.00 0.00 60 1010.3
20260509201505 60 314 1.0 2.0 0.00 0.00 0.00 60 1010.2
20260509201003 60 296 5.0 7.0 0.00 0.00 0.00 60 1010.2
20260509200458 60 314 3.0 4.0 0.00 0.00 0.00 60 1010.0
20260509195954 60 263 6.0 7.0 0.00 0.00 0.00 58 1010.1
20260509195450 60 354 2.0 3.0 0.00 0.00 0.00 59 1010.3
20260509194949 59 345 3.0 4.0 0.00 0.00 0.00 59 1010.5
20260509194445 60 266 3.0 4.0 0.00 0.00 0.00 58 1010.3
20260509193942 60 224 8.0 10.0 0.00 0.00 0.00 57 1010.1
20260509193442 60 229 4.0 4.0 0.00 0.00 0.00 58 1010.0
20260509192938 60 258 4.0 6.0 0.00 0.00 0.00 57 1010.3
20260509192435 59 297 3.0 4.0 0.00 0.00 0.00 56 1010.2
20260509191930 59 265 4.0 4.0 0.00 0.00 0.00 57 1010.1
20260509191426 60 246 5.0 8.0 0.00 0.00 0.00 55 1010.1
20260509190922 60 247 12.0 16.0 0.00 0.00 0.00 54 1010.1
20260509190419 61 225 4.0 4.0 0.00 0.00 0.00 52 1009.9
20260509185917 62 201 3.0 6.0 0.00 0.00 0.00 51 1010.1
20260509185414 61 319 2.0 3.0 0.00 0.00 0.00 52 1009.8
20260509184911 61 260 8.0 9.0 0.00 0.00 0.00 52 1009.9
20260509184408 60 262 6.0 7.0 0.00 0.00 0.00 53 1009.9
20260509183905 60 288 7.0 8.0 0.00 0.00 0.00 53 1010.0
20260509183359 61 255 6.0 7.0 0.00 0.00 0.00 52 1010.1
20260509182855 61 271 5.0 6.0 0.00 0.00 0.00 51 1010.0
20260509182353 61 283 12.0 14.0 0.00 0.00 0.00 51 1010.0
20260509181850 63 240 4.0 7.0 0.00 0.00 0.00 49 1009.9
20260509181347 62 280 2.0 3.0 0.00 0.00 0.00 51 1009.9
20260509180845 62 252 3.0 6.0 0.00 0.00 0.00 52 1010.1
20260509180340 61 236 7.0 9.0 0.00 0.00 0.00 53 1009.9
20260509175837 61 189 3.0 7.0 0.00 0.00 0.00 53 1010.0
20260509175333 60 221 6.0 8.0 0.00 0.00 0.00 53 1010.1
20260509174829 60 291 4.0 7.0 0.00 0.00 0.00 54 1010.1
20260509174325 60 4 3.0 4.0 0.00 0.00 0.00 53 1010.1
20260509173821 59 302 3.0 6.0 0.00 0.00 0.00 53 1010.1
20260509173317 60 202 7.0 8.0 0.00 0.00 0.00 53 1010.3
20260509172813 60 185 9.0 10.0 0.00 0.00 0.00 53 1010.5
20260509172310 59 195 4.0 6.0 0.00 0.00 0.00 54 1010.2
20260509171806 58 224 5.0 7.0 0.00 0.00 0.00 56 1010.5
20260509171302 58 287 7.0 9.0 0.00 0.00 0.00 55 1010.3
20260509170758 57 248 4.0 7.0 0.00 0.00 0.00 57 1010.7
20260509170255 57 296 5.0 6.0 0.00 0.00 0.00 55 1010.6
20260509165754 56 298 5.0 7.0 0.00 0.00 0.00 57 1010.7
20260509165249 57 310 3.0 4.0 0.00 0.00 0.00 57 1010.7
20260509164745 56 274 0.0 1.0 0.00 0.00 0.00 59 1010.7
20260509164241 56 237 5.0 6.0 0.00 0.00 0.00 58 1010.9
20260509163738 56 348 3.0 4.0 0.00 0.00 0.00 58 1010.8
20260509163234 56 313 2.0 3.0 0.00 0.00 0.00 58 1010.8
20260509162733 56 303 3.0 3.0 0.00 0.00 0.00 57 1010.9
20260509162227 56 296 3.0 3.0 0.00 0.00 0.00 58 1010.6
20260509161723 56 269 6.0 6.0 0.00 0.00 0.00 56 1010.7
20260509161220 56 257 1.0 2.0 0.00 0.00 0.00 56 1010.8
20260509160715 56 241 5.0 7.0 0.00 0.00 0.00 55 1010.9
20260509160211 56 307 2.0 2.0 0.00 0.00 0.00 54 1010.8
20260509155706 56 299 2.0 3.0 0.00 0.00 0.00 55 1010.9
20260509155203 55 297 3.0 3.0 0.00 0.00 0.00 58 1011.1
20260509154659 55 263 4.0 4.0 0.00 0.00 0.00 57 1011.4
20260509154156 55 229 3.0 4.0 0.00 0.00 0.00 58 1011.3
20260509153653 54 278 6.0 8.0 0.00 0.00 0.00 57 1011.3
20260509153150 54 251 3.0 3.0 0.00 0.00 0.00 58 1011.3
20260509152645 54 276 5.0 6.0 0.00 0.00 0.00 58 1011.5
20260509152143 54 264 5.0 7.0 0.00 0.00 0.00 57 1011.2
20260509151639 54 323 5.0 6.0 0.00 0.00 0.00 57 1011.4
20260509151137 54 282 4.0 7.0 0.00 0.00 0.00 57 1011.2
20260509150635 55 266 5.0 6.0 0.00 0.00 0.00 56 1011.3
20260509150133 55 303 1.0 2.0 0.00 0.00 0.00 61 1011.0
20260509145629 55 293 2.0 2.0 0.00 0.00 0.00 60 1010.9
20260509145124 55 311 0.0 0.0 0.00 0.00 0.00 60 1011.0
20260509144621 55 310 0.0 1.0 0.00 0.00 0.00 62 1011.0
20260509144118 55 311 0.0 0.0 0.00 0.00 0.00 62 1011.2
20260509143615 55 332 0.0 0.0 0.00 0.00 0.00 61 1011.0
20260509143113 54 325 0.0 0.0 0.00 0.00 0.00 63 1010.9
20260509142608 53 320 0.0 0.0 0.00 0.00 0.00 67 1010.9
20260509142104 53 333 0.0 0.0 0.00 0.00 0.00 67 1010.9
20260509141600 53 335 0.0 0.0 0.00 0.00 0.00 69 1011.1
20260509141057 53 340 1.0 2.0 0.00 0.00 0.00 69 1011.0
20260509140554 52 38 1.0 2.0 0.00 0.00 0.00 70 1011.2
20260509140052 52 338 0.0 1.0 0.00 0.00 0.00 69 1011.1
20260509135549 53 337 0.0 0.0 0.00 0.00 0.00 70 1011.1
20260509135047 51 326 0.0 0.0 0.00 0.00 0.00 72 1011.2
20260509134543 51 327 0.0 1.0 0.00 0.00 0.00 72 1011.2
20260509134041 51 339 0.0 0.0 0.00 0.00 0.00 73 1011.5
20260509133537 51 335 0.0 0.0 0.00 0.00 0.00 74 1011.4
20260509133035 51 336 0.0 0.0 0.00 0.00 0.00 74 1011.2
20260509132533 50 336 0.0 0.0 0.00 0.00 0.00 74 1011.3
20260509132032 50 336 0.0 1.0 0.00 0.00 0.00 74 1011.1
20260509131527 50 335 0.0 0.0 0.00 0.00 0.00 75 1011.1
20260509131024 50 336 0.0 0.0 0.00 0.00 0.00 74 1011.1
20260509130520 50 335 0.0 0.0 0.00 0.00 0.00 74 1011.1
20260509130017 49 335 0.0 0.0 0.00 0.00 0.00 73 1011.0
20260509125513 49 309 0.0 0.0 0.00 0.00 0.00 74 1011.0
20260509125010 49 309 0.0 0.0 0.00 0.00 0.00 74 1011.1
20260509124507 49 309 0.0 0.0 0.00 0.00 0.00 75 1010.9
20260509124004 49 309 0.0 0.0 0.00 0.00 0.00 76 1011.0
20260509123501 49 309 0.0 0.0 0.00 0.00 0.00 77 1011.0
20260509122957 49 309 0.0 0.0 0.00 0.00 0.00 77 1011.0
20260509122454 48 309 0.0 0.0 0.00 0.00 0.00 78 1010.8
20260509121951 48 309 0.0 0.0 0.00 0.00 0.00 78 1011.0
20260509121448 48 309 0.0 0.0 0.00 0.00 0.00 77 1011.2
20260509120946 48 309 0.0 0.0 0.00 0.00 0.00 78 1011.2
20260509120443 48 309 0.0 0.0 0.00 0.00 0.00 78 1011.4
20260509115941 47 309 0.0 0.0 0.00 0.00 0.00 79 1011.2
20260509115438 47 309 0.0 0.0 0.00 0.00 0.00 79 1011.5
20260509114935 46 309 0.0 0.0 0.00 0.00 0.00 79 1011.4
20260509114434 46 309 0.0 0.0 0.00 0.00 0.00 80 1011.3
20260509113933 46 309 0.0 0.0 0.00 0.00 0.00 80 1011.4
20260509113430 46 309 0.0 0.0 0.00 0.00 0.00 80 1011.5
20260509112927 46 309 0.0 0.0 0.00 0.00 0.00 81 1011.4
20260509112424 45 309 0.0 0.0 0.00 0.00 0.00 81 1011.4
20260509111921 45 309 0.0 0.0 0.00 0.00 0.00 81 1011.4
20260509111418 44 309 0.0 0.0 0.00 0.00 0.00 81 1011.3
20260509110916 44 309 0.0 0.0 0.00 0.00 0.00 82 1011.4
20260509110411 44 308 0.0 0.0 0.00 0.00 0.00 83 1011.3
20260509105910 44 308 0.0 1.0 0.00 0.00 0.00 84 1011.3
20260509105408 44 309 0.0 0.0 0.00 0.00 0.00 84 1011.5
20260509104904 44 310 0.0 0.0 0.00 0.00 0.00 83 1011.2
20260509104401 44 334 0.0 0.0 0.00 0.00 0.00 82 1011.3
20260509103859 44 335 0.0 0.0 0.00 0.00 0.00 82 1011.3
20260509103356 44 335 0.0 0.0 0.00 0.00 0.00 82 1011.3
20260509102855 44 320 0.0 0.0 0.00 0.00 0.00 82 1011.3
20260509102351 44 307 0.0 0.0 0.00 0.00 0.00 82 1011.2
20260509101847 44 307 0.0 0.0 0.00 0.00 0.00 82 1011.3
20260509101343 44 306 0.0 0.0 0.00 0.00 0.00 82 1011.4
20260509100841 44 306 0.0 0.0 0.00 0.00 0.00 80 1011.0
20260509100338 44 314 0.0 0.0 0.00 0.00 0.00 80 1011.2
20260509095835 44 314 0.0 0.0 0.00 0.00 0.00 80 1011.0
20260509095332 44 314 0.0 0.0 0.00 0.00 0.00 79 1010.9
20260509094829 45 314 0.0 0.0 0.00 0.00 0.00 80 1011.1
20260509094326 45 314 0.0 0.0 0.00 0.00 0.00 79 1011.0
20260509093823 46 314 0.0 0.0 0.00 0.00 0.00 77 1011.0
20260509093320 46 314 0.0 0.0 0.00 0.00 0.00 76 1011.2
20260509092819 46 315 0.0 0.0 0.00 0.00 0.00 75 1011.2
20260509092317 46 315 0.0 0.0 0.00 0.00 0.00 74 1011.4
20260509091814 47 315 0.0 0.0 0.00 0.00 0.00 73 1011.3
20260509091311 47 321 0.0 0.0 0.00 0.00 0.00 68 1011.3
20260509090808 48 322 0.0 0.0 0.00 0.00 0.00 66 1011.3
20260509090305 49 317 0.0 0.0 0.00 0.00 0.00 65 1011.2
20260509085803 49 300 0.0 0.0 0.00 0.00 0.00 65 1011.1
20260509085300 49 301 0.0 0.0 0.00 0.00 0.00 64 1011.0
20260509084756 49 299 0.0 0.0 0.00 0.00 0.00 64 1011.3
20260509084253 49 301 0.0 0.0 0.00 0.00 0.00 64 1011.3
20260509083751 49 287 2.0 2.0 0.00 0.00 0.00 64 1011.3
20260509083247 49 308 0.0 1.0 0.00 0.00 0.00 64 1011.3
20260509082744 49 293 2.0 2.0 0.00 0.00 0.00 63 1011.4
20260509082241 49 285 1.0 3.0 0.00 0.00 0.00 63 1011.3
20260509081738 49 312 2.0 2.0 0.00 0.00 0.00 63 1011.4
20260509081235 49 303 2.0 3.0 0.00 0.00 0.00 63 1011.2
20260509080733 49 301 2.0 3.0 0.00 0.00 0.00 63 1011.1
20260509080231 49 298 3.0 3.0 0.00 0.00 0.00 63 1011.4
20260509075729 49 316 1.0 1.0 0.00 0.00 0.00 63 1011.3
20260509075226 49 309 2.0 2.0 0.00 0.00 0.00 62 1011.2
20260509074723 49 294 1.0 1.0 0.00 0.00 0.00 63 1011.3
20260509074221 49 299 1.0 2.0 0.00 0.00 0.00 63 1011.2
20260509073716 48 305 1.0 2.0 0.00 0.00 0.00 64 1011.4
20260509073213 48 297 0.0 0.0 0.00 0.00 0.00 66 1011.3
20260509072709 49 297 0.0 0.0 0.00 0.00 0.00 68 1011.4
20260509072207 49 297 0.0 0.0 0.00 0.00 0.00 63 1011.4
20260509071703 49 299 1.0 1.0 0.00 0.00 0.00 63 1011.2
20260509071200 49 304 0.0 0.0 0.00 0.00 0.00 64 1011.5
20260509070657 49 299 1.0 1.0 0.00 0.00 0.00 64 1011.7
20260509070153 49 298 1.0 1.0 0.00 0.00 0.00 66 1011.4
20260509065650 48 299 0.0 0.0 0.00 0.00 0.00 66 1011.4
20260509065146 47 298 2.0 2.0 0.00 0.00 0.00 70 1011.2
20260509064643 46 300 0.0 0.0 0.00 0.00 0.00 75 1011.3
20260509064141 45 300 0.0 0.0 0.00 0.00 0.00 81 1011.5
20260509063637 45 300 0.0 0.0 0.00 0.00 0.00 84 1011.7
20260509063134 45 300 0.0 0.0 0.00 0.00 0.00 84 1011.3
20260509062631 45 300 0.0 0.0 0.00 0.00 0.00 84 1011.7
20260509062128 45 300 0.0 0.0 0.00 0.00 0.00 84 1011.5
20260509061625 45 300 0.0 0.0 0.00 0.00 0.00 84 1011.8
20260509061122 44 300 0.0 0.0 0.00 0.00 0.00 84 1011.9
20260509060620 44 300 0.0 0.0 0.00 0.00 0.00 84 1011.7
20260509060115 44 300 0.0 0.0 0.00 0.00 0.00 84 1011.7
20260509055611 44 300 0.0 0.0 0.00 0.00 0.00 84 1011.8
20260509055107 44 300 0.0 0.0 0.00 0.00 0.00 85 1011.9
20260509054604 44 300 0.0 0.0 0.00 0.00 0.00 85 1011.9
20260509054102 44 300 0.0 0.0 0.00 0.00 0.00 84 1012.0
20260509053600 44 300 0.0 0.0 0.00 0.00 0.00 84 1012.0
20260509053057 44 300 0.0 0.0 0.00 0.00 0.00 84 1012.1
20260509052555 44 300 0.0 0.0 0.00 0.00 0.00 83 1012.1
20260509052053 45 300 0.0 0.0 0.00 0.00 0.00 83 1012.2
20260509051550 45 300 0.0 0.0 0.00 0.00 0.00 82 1012.2
20260509051047 45 300 0.0 0.0 0.00 0.00 0.00 82 1012.1
20260509050544 45 300 0.0 0.0 0.00 0.00 0.00 82 1012.3
20260509050040 45 300 0.0 0.0 0.00 0.00 0.00 83 1012.2
20260509045538 45 300 0.0 0.0 0.00 0.00 0.00 82 1012.5
20260509045035 45 300 0.0 0.0 0.00 0.00 0.00 81 1012.6
20260509044532 46 300 0.0 0.0 0.00 0.00 0.00 81 1012.3
20260509044029 45 300 0.0 0.0 0.00 0.00 0.00 82 1012.3
20260509043526 46 300 0.0 0.0 0.00 0.00 0.00 82 1012.6
20260509043021 45 300 0.0 0.0 0.00 0.00 0.00 81 1012.4
20260509042518 46 300 0.0 0.0 0.00 0.00 0.00 81 1012.5
20260509042014 46 300 0.0 0.0 0.00 0.00 0.00 80 1012.6
20260509041511 46 300 0.0 0.0 0.00 0.00 0.00 80 1012.8
20260509041009 46 300 0.0 0.0 0.00 0.00 0.00 81 1012.6
20260509040507 45 300 0.0 0.0 0.00 0.00 0.00 82 1012.6
20260509040003 45 300 0.0 0.0 0.00 0.00 0.00 83 1012.4
20260509035500 45 300 0.0 0.0 0.00 0.00 0.00 84 1012.6
20260509034956 45 300 0.0 0.0 0.00 0.00 0.00 85 1012.6
20260509034455 45 300 0.0 0.0 0.00 0.00 0.00 85 1012.5
20260509033951 45 300 0.0 0.0 0.00 0.00 0.00 84 1012.6
20260509033448 45 300 0.0 0.0 0.00 0.00 0.00 83 1012.5
20260509032945 46 300 0.0 0.0 0.00 0.00 0.00 83 1012.8
20260509032442 46 300 0.0 0.0 0.00 0.00 0.00 83 1012.9
20260509031940 46 300 0.0 0.0 0.00 0.00 0.00 82 1012.9
20260509031437 46 300 0.0 0.0 0.00 0.00 0.00 82 1012.6
20260509030934 46 300 0.0 0.0 0.00 0.00 0.00 81 1012.5
20260509030432 46 300 0.0 0.0 0.00 0.00 0.00 80 1012.8
20260509025929 47 300 0.0 0.0 0.00 0.00 0.00 79 1012.5
20260509025425 47 300 0.0 0.0 0.00 0.00 0.00 78 1012.6
20260509024920 47 300 0.0 0.0 0.00 0.00 0.00 75 1012.6
20260509024417 47 300 0.0 0.0 0.00 0.00 0.00 73 1012.8
20260509023914 47 300 0.0 0.0 0.00 0.00 0.00 74 1012.8
20260509023411 48 300 0.0 0.0 0.00 0.00 0.00 75 1013.0
20260509022907 48 300 0.0 0.0 0.00 0.00 0.00 76 1012.8
20260509022405 48 300 0.0 0.0 0.00 0.00 0.00 76 1012.6
20260509021902 48 300 0.0 0.0 0.00 0.00 0.00 76 1012.8
20260509021358 48 300 0.0 0.0 0.00 0.00 0.00 75 1012.5
20260509020856 48 300 0.0 0.0 0.00 0.00 0.00 74 1012.8
20260509020354 48 300 0.0 0.0 0.00 0.00 0.00 74 1012.9
20260509015851 49 300 0.0 0.0 0.00 0.00 0.00 74 1012.9
20260509015350 49 300 0.0 0.0 0.00 0.00 0.00 73 1013.0
20260509014846 49 300 0.0 0.0 0.00 0.00 0.00 72 1012.9
20260509014342 49 300 0.0 0.0 0.00 0.00 0.00 71 1012.9
20260509013839 49 300 0.0 0.0 0.00 0.00 0.00 69 1013.0
20260509013336 50 300 0.0 0.0 0.00 0.00 0.00 69 1013.1
20260509012832 50 300 0.0 0.0 0.00 0.00 0.00 68 1013.0
20260509012328 49 300 0.0 0.0 0.00 0.00 0.00 63 1012.6
20260509011826 49 300 0.0 0.0 0.00 0.00 0.00 65 1012.4
20260509011323 49 300 0.0 0.0 0.00 0.00 0.00 66 1012.2
20260509010821 49 300 0.0 0.0 0.00 0.00 0.00 67 1012.2
20260509010318 49 300 0.0 0.0 0.00 0.00 0.00 69 1012.1
20260509005815 50 300 0.0 0.0 0.00 0.00 0.00 67 1012.2
20260509005314 50 300 0.0 0.0 0.00 0.00 0.00 66 1012.4
20260509004814 51 300 0.0 1.0 0.00 0.00 0.00 63 1012.3
20260509004310 51 300 0.0 0.0 0.00 0.00 0.00 61 1012.5
20260509003808 52 301 0.0 0.0 0.00 0.00 0.00 57 1012.6
20260509003306 53 299 1.0 1.0 0.00 0.00 0.00 55 1012.4
20260509002803 53 302 1.0 1.0 0.00 0.00 0.00 53 1012.5
20260509002300 54 297 2.0 2.0 0.00 0.00 0.00 52 1012.5
20260509001758 55 265 2.0 2.0 0.00 0.00 0.00 50 1012.5
20260509001253 55 262 3.0 3.0 0.00 0.00 0.00 49 1012.5
20260509000751 55 309 3.0 3.0 0.00 0.00 0.00 48 1012.8
20260509000248 55 260 2.0 3.0 0.00 0.00 0.00 48 1012.6
20260508235745 55 263 2.0 2.0 0.00 0.00 0.00 48 1012.5
20260508235242 56 241 2.0 3.0 0.00 0.00 0.00 48 1012.5
20260508234739 56 297 2.0 3.0 0.00 0.00 0.00 47 1012.4